SCP
0 1 1 1 1 1 1 1 1 1 1 1 1 1 0 0 0 0 0 0 0 0 0 0 0 0 0 0 0 0 0 0 0 0 0 0 0 0 0 0 0 0 0
0 1 1 1 1 1 1 1 1 1 1 1 1 1 0 0 0 0 0 0 0 0 0 0 0 0 0 0 0 0 0 0 0 0 0 0 0 0 0 0 0 0 0
0 1 1 1 1 1 1 1 1 1 1 1 1 1 0 0 0 0 0 0 0 0 0 0 0 0 0 0 0 0 0 0 0 0 0 0 0 0 0 0 0 0 0
0 1 1 1 1 1 1 1 1 1 1 1 1 1 1 0 0 0 0 0 0 0 0 0 0 0 0 0 0 0 0 0 0 0 0 0 0 0 0 0 0 0 0
0 1 1 1 1 1 1 1 1 1 1 1 1 1 1 0 0 0 0 0 0 0 0 0 0 0 0 0 0 0 0 0 0 0 0 0 0 0 0 0 0 0 0
0 1 1 1 1 1 1 1 1 1 1 1 1 1 1 1 0 0 0 0 0 0 0 0 0 0 0 0 0 0 0 0 0 0 0 0 0 0 0 0 0 0 0
0 1 1 1 1 1 1 1 1 1 1 1 1 1 1 1 1 1 0 0 0 0 0 0 0 0 0 0 0 0 0 0 0 0 0 0 0 0 0 0 0 0 0
0 1 1 1 1 1 1 1 1 1 1 1 1 1 1 1 1 1 0 0 0 0 0 0 0 0 0 0 0 0 0 0 0 0 0 0 0 0 0 0 0 0 0
1 1 1 1 1 1 1 1 1 1 1 1 1 1 1 1 1 1 0 0 0 0 0 0 0 0 0 0 0 0 0 0 0 0 0 0 0 0 0 0 0 0 0
1 1 1 1 1 1 1 1 1 1 1 1 1 1 1 1 1 0 0 0 0 0 0 0 0 0 0 0 0 0 0 0 0 0 0 0 0 0 0 0 0 0 0
1 1 1 1 1 1 1 1 1 1 1 1 1 1 1 1 0 0 0 0 0 0 0 0 0 0 0 0 0 0 0 0 0 0 0 0 0 0 0 0 0 0 0
1 1 1 1 1 1 1 1 1 1 1 1 1 1 1 0 0 0 0 0 0 0 0 0 0 0 0 0 0 0 0 0 0 0 0 0 0 0 0 0 0 0 0
0 0 1 1 1 1 1 1 1 1 1 1 1 1 0 0 0 0 0 0 0 0 0 0 0 0 0 0 0 0 0 0 0 0 0 0 0 0 0 0 0 0 0
0 0 1 1 1 1 1 1 1 1 1 1 1 1 1 0 0 0 0 0 0 0 0 0 0 0 0 0 0 0 0 0 0 0 0 0 0 0 0 0 0 0 0
0 0 1 1 1 0 0 1 1 1 1 1 1 1 0 0 0 0 0 0 0 0 0 0 0 0 0 0 0 0 0 0 0 0 0 0 0 0 0 0 0 0 0
0 0 0 0 0 0 0 0 1 1 1 1 1 1 0 0 0 0 0 0 0 0 0 0 0 0 0 0 0 0 0 0 0 0 0 0 0 0 0 0 0 0 0
0 0 0 0 0 0 0 0 0 1 1 1 1 1 0 0 0 0 0 0 0 0 0 0 0 0 0 0 0 0 0 0 0 0 0 0 0 0 0 0 0 0 0
0 0 0 0 0 0 0 0 0 0 1 1 1 0 0 0 0 0 0 0 0 0 0 0 0 0 0 0 0 0 0 0 0 0 0 0 0 0 0 0 0 0 0
0 0 0 0 0 0 0 0 0 0 0 1 0 0 0 0 0 0 0 0 0 0 0 0 0 0 0 0 0 0 0 0 0 0 0 0 0 0 0 0 0 0 0
0 0 0 0 0 0 0 0 0 0 0 0 0 0 0 0 0 0 0 0 0 0 0 0 0 0 0 0 0 0 0 0 0 0 0 0 0 0 0 0 0 0 0
0 0 0 0 0 0 0 0 0 0 0 0 0 0 0 0 0 0 0 0 0 0 0 0 0 0 0 0 0 0 0 0 0 0 0 0 0 0 0 0 0 0 0
0 0 0 0 0 0 0 0 0 0 0 0 0 0 0 0 0 0 0 0 0 0 0 0 0 0 0 0 0 0 0 0 0 0 0 0 0 0 0 0 0 0 0
0 0 0 0 0 0 0 0 0 0 0 0 0 0 0 0 0 0 0 0 0 0 0 0 0 0 0 0 0 0 0 0 0 0 0 0 0 0 0 0 0 0 0
0 0 0 0 0 0 0 0 0 0 0 0 0 0 0 0 0 0 0 0 0 0 0 0 0 0 0 0 0 0 0 0 0 0 0 0 0 0 0 0 0 0 0
0 0 0 0 0 0 0 0 0 0 0 0 0 0 0 0 0 0 0 0 0 0 0 0 0 0 0 0 0 0 0 0 0 0 0 0 0 0 0 0 0 0 0
0 0 0 0 0 0 0 0 0 0 0 0 0 0 0 0 0 0 0 0 0 0 0 0 0 0 0 0 0 0 0 0 0 0 0 0 0 0 0 0 0 0 0
Wind_Speed
8 14 21 19 18 18 18 18 18 18 18 18 17 17 16 16 16 16 16 16 15 15 15 16 16 16 17 17 17 16 16 16 16 16 16 16 16 16 16 15 14 10 16
10 15 21 19 18 18 18 18 18 18 18 17 17 17 16 16 16 16 16 16 16 16 16 16 16 16 16 16 16 15 15 14 14 14 15 14 15 16 16 15 14 10 16
11 15 19 19 18 17 18 18 18 18 18 18 17 17 16 16 16 16 16 16 16 16 16 16 16 16 16 16 15 14 13 11 11 11 12 7 10 15 15 15 15 16 16
10 14 16 18 18 17 18 18 18 18 18 18 17 17 17 16 16 16 16 16 16 16 16 16 16 16 16 15 14 13 11 10 9 10 7 7 7 14 15 15 16 16 16
9 11 15 20 18 18 18 18 18 19 18 18 18 17 17 17 16 17 16 16 16 17 17 16 16 16 15 14 13 11 10 8 8 9 8 7 6 13 15 16 16 16 15
7 9 15 21 19 18 18 18 18 19 19 18 18 17 17 17 17 16 16 16 17 17 17 16 16 15 14 13 12 10 8 7 7 7 7 6 5 12 14 14 14 14 15
7 7 13 20 20 19 18 18 18 19 19 19 18 18 17 17 17 16 16 17 17 17 16 16 15 15 14 13 11 9 7 7 7 7 7 6 6 12 13 14 13 13 14
7 8 11 17 19 18 18 18 18 19 19 19 18 18 18 18 17 17 17 17 16 16 16 16 15 14 14 12 10 7 5 6 8 8 7 5 9 12 12 12 12 12 13
7 7 9 11 14 17 17 18 18 18 19 19 18 18 17 17 18 18 17 17 16 16 16 15 15 14 13 12 9 6 5 6 4 5 8 4 9 11 11 11 11 11 12
6 7 8 9 10 10 12 15 17 17 18 18 17 16 16 16 17 17 16 16 16 16 16 15 14 14 13 11 8 4 3 3 4 6 5 5 9 10 10 10 10 11 11
5 7 8 9 9 9 9 12 14 15 16 16 15 16 14 9 10 11 13 15 16 16 15 15 14 14 12 10 7 3 0 1 5 5 4 7 8 9 9 9 9 9 9
5 6 7 8 8 8 8 8 8 9 10 10 10 11 8 8 7 10 14 14 15 15 15 14 14 13 9 4 4 3 1 3 5 5 4 8 8 8 8 8 8 8 8
6 7 7 8 8 9 7 6 5 5 6 9 11 11 8 7 7 7 6 8 9 11 8 9 8 5 4 4 3 2 1 2 3 4 4 7 7 7 7 7 6 6 6
7 7 8 8 8 8 8 6 6 6 6 6 9 11 8 6 6 7 6 6 6 5 6 5 4 4 5 5 4 3 3 2 4 4 4 7 6 6 5 5 5 5 5
7 8 8 9 9 8 7 7 7 7 7 8 7 9 10 8 8 8 7 6 6 5 6 5 4 5 5 5 3 3 3 3 5 5 4 7 6 5 4 4 3 3 3
8 8 8 9 10 8 7 7 7 7 7 8 7 9 11 9 8 8 7 7 6 6 6 5 5 5 4 3 3 4 3 3 4 5 5 5 6 5 4 3 2 2 2
9 8 9 9 9 9 8 8 7 7 8 7 7 9 10 10 10 8 7 7 6 6 6 4 5 4 4 3 3 3 3 3 3 4 5 4 3 4 4 3 2 1 1
8 8 9 9 9 9 8 8 7 7 8 7 7 8 10 11 11 9 7 7 7 6 5 4 4 4 3 3 2 2 2 2 2 3 4 4 3 3 3 4 2 1 0
7 8 9 8 9 9 8 7 7 7 7 7 7 7 9 11 12 9 8 7 8 6 5 5 4 4 4 3 3 2 2 2 2 2 3 4 4 4 3 4 3 2 1
7 7 9 9 9 8 7 6 5 6 7 7 7 8 11 10 12 10 8 9 9 7 5 5 5 4 4 4 3 2 2 2 2 2 2 3 3 4 3 3 3 2 2
5 6 8 9 9 8 6 7 7 7 7 7 7 10 11 11 12 11 9 9 9 7 7 7 5 6 4 4 3 1 0 2 2 2 2 2 3 4 3 3 2 2 1
6 6 7 8 9 8 7 7 6 6 6 7 7 9 10 11 12 11 11 9 9 8 8 8 7 5 4 4 4 3 1 1 2 2 2 3 3 3 3 3 3 2 1
6 7 6 8 8 7 8 6 6 5 5 6 8 9 10 11 12 11 12 10 10 9 8 8 8 7 5 4 4 4 4 3 2 2 3 3 3 2 3 3 3 2 2
6 7 7 7 8 9 8 8 9 8 8 8 7 7 10 11 12 13 13 12 11 8 9 9 8 6 7 5 4 2 2 3 3 1 2 3 4 3 3 3 3 2 2
5 6 7 7 7 8 8 10 10 8 7 6 7 9 10 10 12 13 13 12 11 9 10 9 8 7 6 5 4 3 2 1 2 3 2 2 2 2 3 3 3 2 2
3 4 5 7 7 8 9 10 11 11 9 9 10 10 9 8 10 13 13 12 11 9 10 10 9 9 7 6 5 4 3 3 3 3 3 3 2 3 3 2 3 3 2
Wind_Direction
130 146 157 160 159 157 155 153 150 146 144 141 139 136 132 128 124 122 121 120 118 116 113 110 107 102 98 95 92 89 87 86 85 83 80 77 75 72 69 67 69 63 66
134 146 157 159 161 160 157 155 151 147 145 144 142 139 136 134 130 128 127 124 122 119 115 112 109 105 101 98 94 91 90 90 91 88 83 77 75 72 70 70 71 71 69
133 142 157 158 161 161 158 156 153 149 148 147 145 142 140 138 135 134 130 127 124 119 116 113 109 105 102 99 96 94 93 95 93 88 85 78 73 74 75 75 72 72 71
135 142 159 159 162 163 160 158 155 153 151 150 148 145 144 142 139 137 133 128 124 119 116 112 108 106 104 102 100 98 96 92 82 79 77 72 71 77 76 75 75 72 70
138 147 156 160 164 164 162 159 157 155 153 151 150 148 147 145 142 139 134 129 125 121 118 114 112 110 108 106 104 102 98 85 75 78 78 72 68 79 76 75 74 72 70
139 146 153 161 165 166 164 162 160 157 155 153 151 150 149 145 142 139 134 130 127 123 121 119 116 113 111 110 108 105 93 69 72 77 77 73 70 80 79 77 75 72 70
140 142 153 162 166 166 166 165 162 160 158 155 153 151 150 146 142 138 135 132 130 128 125 123 120 118 115 112 110 105 81 59 84 80 77 73 76 83 83 78 75 74 71
143 145 152 164 166 167 168 167 165 162 159 156 154 152 150 148 144 141 138 136 135 133 130 127 125 122 119 115 112 101 63 63 90 92 86 78 85 87 84 79 76 74 72
144 144 151 163 167 169 170 168 165 163 160 157 155 153 150 148 147 145 143 140 138 136 133 130 128 125 122 119 116 101 60 54 81 95 94 80 89 89 86 83 79 76 72
146 151 158 162 165 169 170 168 165 163 161 158 155 152 149 148 147 145 143 143 141 139 135 133 131 128 125 124 125 114 55 40 89 87 87 90 91 92 90 87 82 78 74
166 162 166 168 168 167 168 169 164 162 161 157 154 149 146 148 146 145 142 144 144 141 139 138 136 133 129 132 141 154 12 104 96 88 83 99 99 98 94 92 86 81 76
189 177 172 170 167 165 167 166 166 166 162 161 158 158 157 151 148 143 141 144 145 142 141 142 143 141 138 145 166 184 227 112 100 99 97 105 106 102 99 96 90 83 77
203 195 182 171 169 166 165 170 168 165 166 166 163 167 154 145 141 137 141 142 141 142 142 145 149 160 155 147 167 178 130 94 100 102 101 106 110 108 103 99 97 89 80
214 204 190 173 171 170 168 172 167 166 169 167 170 166 155 150 148 148 151 151 153 153 148 156 167 166 149 150 168 156 125 106 103 108 112 110 112 117 113 105 101 92 81
230 210 198 182 175 175 171 172 173 171 172 169 169 168 158 154 155 155 156 156 160 154 156 167 167 159 149 158 163 140 128 115 116 118 121 118 112 119 124 118 108 100 86
226 217 204 190 180 176 176 174 174 173 173 171 168 167 162 158 158 159 155 159 159 155 160 167 161 152 148 149 148 140 141 131 126 128 136 130 128 127 127 120 112 106 83
218 217 210 195 186 179 179 181 176 175 175 173 170 166 165 160 159 160 156 159 158 155 159 161 150 140 139 140 148 144 135 128 130 137 141 144 144 138 136 130 110 108 68
215 213 214 203 191 183 181 183 177 176 176 174 169 169 166 163 161 160 157 159 157 152 154 152 147 139 142 146 148 140 130 128 142 143 141 145 146 148 157 156 148 153 23
215 211 211 201 192 186 181 181 184 176 177 174 171 168 169 165 163 159 158 158 155 151 153 155 149 145 148 148 144 136 137 137 155 141 151 147 142 144 153 169 166 176 215
212 212 210 203 194 185 178 179 184 177 178 176 172 170 170 166 164 158 157 158 155 152 155 154 153 149 147 149 142 136 153 161 158 161 170 152 152 155 155 157 159 192 215
209 213 208 200 194 183 180 182 183 182 178 179 173 174 171 167 166 160 158 160 158 158 163 160 154 155 155 143 119 112 263 190 175 179 178 165 166 164 160 158 159 164 198
207 216 218 204 195 189 187 187 180 178 181 181 173 175 173 171 168 165 161 162 162 160 164 164 155 154 161 153 142 138 161 247 256 201 178 178 180 167 167 167 162 161 154
208 210 217 210 197 193 190 179 177 176 178 182 179 176 179 176 172 169 166 162 165 164 167 168 163 161 165 170 163 157 156 191 202 222 204 186 186 176 175 169 168 168 157
218 213 212 208 198 195 191 185 181 189 191 185 178 177 179 178 175 171 169 166 167 167 167 171 168 163 160 171 188 202 170 148 146 178 240 210 190 181 179 173 169 168 156
227 219 211 201 202 200 198 192 187 192 198 181 173 177 184 182 179 174 173 170 169 170 170 172 167 168 170 169 172 174 182 152 154 147 194 216 210 200 179 172 166 163 156
249 232 213 201 203 202 202 194 190 190 192 182 178 180 188 186 182 177 175 174 172 172 173 173 171 173 174 172 170 167 161 163 181 169 178 189 201 213 189 171 164 161 153